#timestamp,LO_Frequency,Hit,StdDev 
1600912815.7,286047000.6,N
1600912835.5,286047000.6,N
1600912855.4,286046997.0,N
1600912875.2,286046999.6,N
1600912895.0,286046995.2,N
1600912895.9,286046995.2,N
1600912915.8,286046994.9,N
1600912935.6,286046998.0,N
1600912955.5,286046997.6,N
1600912975.3,286046997.3,N
1600912995.1,286046997.1,N
1600913015.9,286046998.7,N
1600913035.7,286046996.6,N
1600913055.5,286046996.8,N
1600913075.4,286046997.6,N
1600913095.2,286046994.9,N
1600913115.1,286046997.5,N
1600913116.0,286046997.5,N
1600913135.8,286046998.5,N
1600913155.6,286046999.6,N
1600913175.5,286046999.5,N
1600913195.3,286046996.6,N
1600913215.1,286046999.3,N
1600913235.9,286047002.0,N
1600913255.7,286047000.0,N
1600913275.6,286046999.1,N
1600913295.4,286046996.5,N
1600913315.2,286046999.3,N
1600913335.1,286047001.1,N
1600913336.0,286047001.1,N
1600913355.8,286047001.1,N
1600913375.7,286047000.6,N
1600913395.5,286046999.8,N
1600913415.3,286047002.3,N
1600913435.2,286047000.5,N
1600913455.9,286046996.8,N
1600913475.7,286046999.4,N
1600913495.6,286046998.5,N
1600913515.4,286046996.9,N
1600913535.3,286046999.4,N
1600913555.1,286046996.7,N
1600913556.0,286046996.7,N
1600913575.8,286046998.8,N
1600913595.7,286046999.0,N
1600913615.5,286047000.3,N
1600913635.3,286047002.3,N
1600913655.2,286047000.2,N
1600913675.0,286047001.0,N
1600913675.9,286047001.0,N
1600913695.8,286046998.7,N
1600913715.6,286046998.6,N
1600913765.4,286046999.4,E
1600913775.4,286047000.7,N
1600913795.2,286046998.8,P
1600913815.0,286047000.1,N
1600913815.9,286047000.1,N
1600913835.8,286047001.4,N
1600913855.6,286047002.0,N
1600913875.5,286047000.0,N
1600913895.3,286047000.3,N
1600913915.1,286047001.0,N
1600913935.9,286047000.2,N
1600913955.7,286046998.8,N
1600913975.5,286046998.8,N
1600913995.4,286046998.5,N
1600914015.2,286046998.4,N
1600914035.1,286047000.4,N
1600914036.0,286047000.4,N
1600914055.8,286047000.9,N
1600914075.6,286047000.6,N
1600914095.5,286047004.0,Y
1600914115.3,286047005.4,P
1600914135.1,286047003.8,N
1600914155.9,286047001.3,N
1600914175.7,286047001.7,N
1600914195.6,286046999.8,N
1600914215.4,286046999.4,N
1600914235.2,286046998.8,N
1600914255.1,286046996.1,N
1600914256.0,286046996.1,N
1600914275.8,286046996.8,N
1600914295.6,286046999.6,N
1600914315.5,286046999.5,N
1600914335.3,286046998.7,N
1600914355.2,286046998.2,N
1600914375.9,286046996.5,N
1600914395.7,286047001.2,N
1600914415.6,286047001.8,N
1600914435.4,286047001.6,N
1600914455.2,286047002.0,N
1600914475.1,286047000.7,N
1600914476.0,286047000.7,N
1600914495.8,286046999.4,N
1600914515.7,286047001.0,N
1600914535.5,286047001.6,N
1600914555.3,286046996.5,N
1600914575.2,286046996.8,N
1600914595.0,286046999.3,N
1600914595.9,286046999.3,N
1600914615.7,286047000.7,N
1600914635.6,286047001.7,N
1600914655.4,286047002.3,N
1600914675.3,286046999.8,N
1600914695.1,286047000.8,N
1600914696.0,286047000.8,N
1600914715.8,286047000.1,N
1600914735.7,286047002.7,N
1600914755.5,286047001.8,N
1600914775.3,286047000.9,N
1600914795.2,286046999.0,N
1600914815.0,286047002.6,N
1600914815.9,286047002.6,N
1600914835.8,286047001.9,N
1600914855.6,286047004.2,N
1600914875.4,286047002.9,N
1600914895.3,286047003.9,N
1600914915.1,286047001.5,N
1600914935.8,286047000.5,N
1600914955.7,286047002.8,N
1600914975.5,286047000.7,N
1600914995.4,286046998.3,N
1600915015.2,286047000.7,N
1600915035.0,286047000.1,N
1600915035.9,286047000.1,N
1600915055.8,286047000.6,N
1600915075.6,286047002.0,N
1600915095.5,286047000.9,N
1600915115.3,286047001.0,N
1600915135.1,286046999.7,N
1600915155.9,286047000.9,N
1600915175.7,286047000.0,N
1600915195.5,286047000.1,N
1600915215.4,286046999.8,N
1600915235.2,286047001.7,N
1600915255.1,286047004.4,Y
1600915256.0,286047004.4,P
1600915275.8,286047001.5,N
1600915295.6,286047000.0,N
1600915315.5,286047000.8,N
1600915335.3,286046998.8,N
1600915355.2,286046998.8,N
1600915375.9,286046996.5,N
1600915395.7,286046996.6,N
1600915415.6,286046999.1,N
1600915435.4,286046998.7,N
1600915455.2,286047000.8,N
1600915475.1,286047002.3,N
1600915476.0,286047002.3,N
1600915495.8,286047002.8,N
1600915515.7,286046999.8,N
1600915535.5,286047000.8,N
1600915555.3,286046998.6,N
1600915575.2,286047000.3,N
1600915595.0,286047001.1,N
1600915595.9,286047001.1,N
1600915615.8,286046999.2,N
1600915635.6,286047000.8,N
1600915655.4,286047000.8,N
1600915675.3,286047000.0,N
1600915695.1,286047002.8,N
1600915715.8,286046998.3,N
1600915735.7,286047000.6,N
1600915755.5,286047002.8,N
1600915775.4,286047000.1,N
1600915795.2,286047000.6,N
1600915815.0,286047000.9,N
1600915815.9,286047000.9,N
1600915835.8,286047000.5,N
1600915855.6,286046998.7,N
1600915875.4,286046998.8,N
1600915895.3,286046998.1,N
1600915915.1,286046997.2,N
1600915935.9,286046996.5,N
1600915955.7,286046997.6,N
1600915975.5,286046996.7,N
1600915995.4,286046996.8,N
1600916015.2,286046991.8,Y
1600916035.1,286046995.4,P
1600916036.0,286046995.4,N
1600916055.8,286046997.7,N
1600916075.6,286047002.3,N
1600916095.5,286046996.5,N
1600916115.3,286046996.4,N
1600916135.1,286046994.5,N
1600916155.9,286046992.1,Y
1600916175.7,286046995.5,P
1600916195.6,286046996.6,P
1600916215.4,286047001.1,N
1600916235.2,286047000.4,N
1600916255.1,286047002.8,N
1600916256.0,286047002.8,N
1600916275.8,286047001.0,N
1600916295.7,286046998.3,N
1600916315.5,286047001.4,N
1600916335.3,286047006.0,N
1600916355.2,286047003.7,N
1600916375.0,286047003.1,N
1600916375.9,286047003.1,N
1600916395.7,286047007.1,N
